CW6451 Weather Reports


Display with metric or nautical units.
time (UTC)temp
F
wind
direction
speed
MPH
gust
MPH
rain 1hr
in
rain 24hr
in
rain mn
in
humidity
%
barometer
mb
20260906151545 65 46 4.0 11.0 0.00 0.00 0.00 83 1015.7
20260906150048 64 38 5.0 11.0 0.00 0.00 0.00 83 1015.7
20260906144550 64 321 5.0 12.0 0.00 0.00 0.00 83 1015.7
20260906143048 64 5 4.0 11.0 0.00 0.00 0.00 87 1015.7
20260906141544 63 331 5.0 13.0 0.00 0.00 0.00 87 1015.8
20260906140052 63 26 3.0 9.0 0.00 0.00 0.00 88 1015.6
20260906134556 63 41 3.0 13.0 0.00 0.00 0.00 86 1015.7
20260906133108 63 350 3.0 9.0 0.00 0.00 0.00 88 1015.6
20260906131545 62 331 4.0 10.0 0.00 0.00 0.00 89 1015.7
20260906130052 61 360 4.0 10.0 0.00 0.00 0.00 90 1015.5
20260906124551 61 36 5.0 10.0 0.00 0.00 0.00 89 1015.4
20260906123046 61 43 2.0 10.0 0.00 0.00 0.00 91 1015.4
20260906121552 60 30 6.0 11.0 0.00 0.00 0.00 92 1015.2
20260906120049 60 27 4.0 10.0 0.00 0.00 0.00 93 1015.2
20260906114557 60 360 2.0 7.0 0.00 0.00 0.00 92 1015.0
20260906113047 60 41 2.0 7.0 0.00 0.00 0.00 91 1014.7
20260906111554 60 43 3.0 13.0 0.00 0.00 0.00 92 1014.5
20260906110046 61 56 5.0 10.0 0.00 0.00 0.00 92 1014.5
20260906104601 61 29 3.0 12.0 0.00 0.00 0.00 92 1014.3
20260906103044 61 31 4.0 11.0 0.00 0.00 0.00 92 1014.1
20260906101553 62 73 6.0 11.0 0.00 0.00 0.00 92 1014.0
20260906100045 62 33 5.0 12.0 0.00 0.00 0.00 91 1013.8
20260906094546 62 19 4.0 10.0 0.00 0.00 0.00 91 1013.6
20260906093058 62 32 5.0 13.0 0.00 0.00 0.00 91 1013.4
20260906091551 62 31 3.0 11.0 0.00 0.00 0.00 92 1013.3
20260906090050 62 360 3.0 9.0 0.00 0.00 0.00 92 1013.3
20260906084545 62 20 3.0 7.0 0.00 0.00 0.00 91 1013.2
20260906083053 62 32 3.0 8.0 0.00 0.00 0.00 91 1013.2
20260906081551 62 38 3.0 9.0 0.00 0.00 0.00 91 1013.1
20260906080047 62 5 4.0 8.0 0.00 0.00 0.00 91 1012.9
20260906074556 62 50 4.0 7.0 0.00 0.00 0.00 90 1012.8
20260906073056 62 42 4.0 8.0 0.00 0.00 0.00 90 1013.0
20260906071552 62 17 2.0 5.0 0.00 0.00 0.00 89 1013.0
20260906070045 62 29 3.0 5.0 0.00 0.00 0.00 90 1012.9
20260906064544 62 0 0.0 4.0 0.00 0.00 0.00 90 1013.0
20260906063046 62 29 1.0 4.0 0.00 0.00 0.00 90 1013.0
20260906061545 62 15 2.0 5.0 0.00 0.00 0.00 90 1013.0
20260906060053 63 36 3.0 6.0 0.00 0.00 0.00 89 1013.1
20260906054601 63 20 2.0 5.0 0.00 0.00 0.00 89 1013.1
20260906053047 63 17 1.0 4.0 0.00 0.00 0.00 89 1013.3
20260906051545 62 28 2.0 5.0 0.00 0.00 0.00 88 1013.4
20260906050112 62 14 2.0 5.0 0.00 0.00 0.00 89 1013.5
20260906044549 62 36 2.0 5.0 0.00 0.00 0.00 89 1013.4
20260906043044 62 26 2.0 4.0 0.00 0.00 0.00 89 1013.3
20260906041553 62 43 0.0 2.0 0.00 0.00 0.00 89 1013.3
20260906040050 62 0 0.0 2.0 0.00 0.00 0.00 88 1013.2
20260906034546 63 0 0.0 1.0 0.00 0.00 0.00 88 1013.2
20260906033053 63 0 0.0 2.0 0.00 0.00 0.00 87 1013.2
20260906031547 63 24 1.0 3.0 0.00 0.00 0.00 87 1013.0
20260906030045 63 17 1.0 4.0 0.00 0.00 0.00 87 1013.0
20260906024607 63 0 1.0 4.0 0.00 0.00 0.00 86 1013.0
20260906023048 64 19 1.0 5.0 0.00 0.00 0.00 86 1013.0
20260906021552 64 17 2.0 4.0 0.00 0.00 0.00 86 1013.2
20260906020052 63 21 1.0 6.0 0.00 0.00 0.00 85 1012.9
20260906014554 63 42 0.0 5.0 0.00 0.00 0.00 85 1013.0
20260906013049 63 5 0.0 2.0 0.00 0.00 0.00 86 1013.1
20260906011544 63 0 0.0 5.0 0.00 0.00 0.00 85 1012.9
20260906010046 63 18 1.0 5.0 0.00 0.00 0.00 85 1012.7
20260906004549 63 23 0.0 3.0 0.00 0.00 0.00 85 1012.6
20260906003047 64 32 1.0 5.0 0.00 0.00 0.00 85 1012.5
20260906001543 64 76 1.0 5.0 0.00 0.00 0.00 85 1012.2
20260906000057 64 93 1.0 7.0 0.00 0.00 0.00 84 1012.2
20260905234606 65 115 0.0 6.0 0.00 0.00 0.00 84 1012.1
20260905233045 65 0 0.0 6.0 0.00 0.00 0.00 84 1012.0
20260905231556 66 38 1.0 10.0 0.00 0.00 0.00 83 1012.0
20260905230109 66 45 4.0 10.0 0.00 0.00 0.00 82 1012.1
20260905224544 67 77 4.0 12.0 0.00 0.00 0.00 81 1011.9
20260905223054 67 91 3.0 14.0 0.00 0.00 0.00 80 1011.8
20260905221554 68 117 3.0 9.0 0.00 0.00 0.00 80 1011.7
20260905220045 69 22 2.0 12.0 0.00 0.00 0.00 79 1011.6
20260905214544 70 96 5.0 14.0 0.00 0.00 0.00 78 1011.2
20260905213050 70 35 4.0 12.0 0.00 0.00 0.00 78 1011.0
20260905211551 71 71 3.0 13.0 0.00 0.00 0.00 76 1010.8
20260905210045 72 29 5.0 12.0 0.00 0.00 0.00 75 1010.6
20260905204551 74 5 3.0 10.0 0.00 0.00 0.00 72 1010.6
20260905203054 73 21 5.0 13.0 0.00 0.00 0.00 73 1010.4
20260905201545 72 34 4.0 10.0 0.00 0.00 0.00 76 1010.4
20260905200046 71 42 5.0 13.0 0.00 0.00 0.00 77 1010.3
20260905194552 72 352 3.0 9.0 0.00 0.00 0.00 76 1010.3
20260905193105 71 46 3.0 8.0 0.00 0.00 0.00 78 1010.3
20260905191545 70 14 3.0 8.0 0.00 0.00 0.00 79 1010.3
20260905190044 71 60 4.0 12.0 0.00 0.00 0.00 78 1010.4
20260905184551 72 23 7.0 15.0 0.00 0.00 0.00 75 1010.4
20260905183051 72 38 3.0 12.0 0.00 0.00 0.00 77 1010.4
20260905181544 72 33 5.0 12.0 0.00 0.00 0.00 77 1010.6
20260905180049 72 35 7.0 14.0 0.00 0.00 0.00 76 1010.6
20260905174548 72 49 5.0 15.0 0.00 0.00 0.00 77 1010.5
20260905173044 71 78 4.0 9.0 0.00 0.00 0.00 78 1010.2
20260905171607 72 15 2.0 9.0 0.00 0.00 0.00 78 1010.1
20260905170046 73 350 3.0 12.0 0.00 0.00 0.00 74 1009.9
20260905164545 74 32 5.0 11.0 0.00 0.00 0.00 73 1009.8
20260905163056 74 46 3.0 9.0 0.00 0.00 0.00 74 1009.7
20260905161546 76 26 6.0 12.0 0.00 0.00 0.00 71 1009.8
20260905160044 75 26 4.0 10.0 0.00 0.00 0.00 74 1009.7
20260905154555 74 30 8.0 13.0 0.00 0.00 0.00 73 1009.9
20260905153052 74 352 5.0 11.0 0.00 0.00 0.00 74 1009.7